x

South Santa Rosa Is. Ca (46069) Wave Buoy

4:50 - Thu 23rd Feb 2017 All times are PST. -8 hours from GMT.

  • Sig Wave height 11.2ft
  • Swell Direction
  • Peak Period 13s
  • Average Period 7s
  • Wind
    27mph, 34mph gusts
  • Sea Temp 56°f
  • Aire Temp 51°f
  • Sea Pressure 1019.9mb
  • South Santa Rosa Is. Ca
  • South Santa Rosa Is. Ca

More Historic Weather Station data

Upgrade to MSW Pro to gain access to the past 30 days of data for over 8000 Wavebouys and Weather Stations around the globe.

Join Pro

Comparision Forecast

View Surf forecast
   
jue 02/23 4:50 11ft 13s 7s 27 34 mph 1019.9mb 56f 51f
3:50 12ft 13s 8s 31 40 mph 1019.1mb 56f 52f
2:50 12ft 8s 7s 31 36 mph 1019.4mb 56f 53f
mié 02/22 5:50 9ft 16s 8s 18 22 mph 1021.6mb 56f 55f
4:50 9ft 16s 8s 20 22 mph 1021.7mb 56f 55f
2:50 8ft 12s 8s 18 20 mph 1022.3mb 56f 56f
1:50 8ft 13s 9s 16 20 mph 1022.8mb 56f 56f
12:50 8ft 11s 9s 13 16 mph 1023.7mb 56f 56f
mar 02/21 11:50 7.5ft 13s 9s 11 13 mph 1024.1mb 56f 56f
10:50 8.5ft 11s 9s 9 11 mph 1024.6mb 56f 56f
9:50 8.5ft 12s 9s 9 11 mph 1024.7mb 56f 56f
8:50 9ft 10s 9s 9 11 mph 1024.5mb 56f 56f
7:50 9.5ft 11s 9s 7 9 mph 1024.2mb 56f 55f
6:50 10.5ft 11s 9s 11 13 mph 1023.9mb 56f 55f
5:50 9ft 12s 9s 7 11 mph 1024.1mb 56f 56f
4:50 10.5ft 13s 10s 7 9 mph 1023.9mb 57f 57f
3:50 9ft 11s 9s 4 7 mph 1024.3mb 57f 57f
2:50 9ft 13s 10s 7 9 mph 1024.5mb 57f 57f
1:50 8.5ft 11s 9s 7 9 mph 1024.7mb 57f 58f
12:50 9ft 13s 10s 4 7 mph 1025.3mb 57f 58f
11:50 9ft 13s 9s 2 4 mph 1025.9mb 57f 58f
10:50 9ft 14s 9s 4
mph
1026.4mb 57f 58f
9:50 8ft 13s 9s 4
mph
1026.4mb 57f 58f
8:50 7.5ft 14s 9s 7
mph
1026mb 57f 58f
7:50 7.5ft 14s 9s 7
mph
1025.4mb 57f 57f
6:50 8ft 15s 8s 9 11 mph 1024.8mb 57f 57f
5:50 9ft 13s 9s 7 9 mph 1024.4mb 56f 57f
4:50 8ft 13s 9s 7 9 mph 1024.3mb 56f 57f
3:50 8.5ft 14s 9s 9 11 mph 1024.5mb 56f 57f
2:50 7.5ft 15s 8s 11 13 mph 1024.7mb 56f 57f
1:50 9ft 15s 9s 11 13 mph 1025.1mb 56f 57f
12:50 8.5ft 13s 9s 11 13 mph 1025.4mb 56f 57f
lun 02/20 11:50 9ft 16s 9s 11 16 mph 1025.1mb 56f 57f
10:50 9.5ft 16s 9s 11 13 mph 1025.2mb 56f 57f
9:50 9ft 16s 9s 11 13 mph 1024.9mb 56f 58f
8:50 10ft 15s 10s 16 18 mph 1024.4mb 56f 57f
7:50 10.5ft 16s 10s 11 16 mph 1024.3mb 56f 57f
6:50 10.5ft 16s 10s 9 13 mph 1024mb 56f 57f
5:50 9ft 15s 9s 9 11 mph 1023.6mb 56f 57f
4:50 10.5ft 16s 10s 9 11 mph 1023.1mb 57f 58f
3:50 10ft 17s 9s 11 13 mph 1022.9mb 57f 58f
2:50 9ft 16s 9s 9 11 mph 1022.6mb 57f 58f
1:50 9ft 16s 9s 16 20 mph 1021.9mb 57f 59f
12:50 8.5ft 17s 9s 9 13 mph 1022.2mb 57f 58f
11:50 9ft 17s 9s 9 11 mph 1022.8mb 57f 58f
10:50 8ft 17s 8s 4 7 mph 1022.9mb 56f 58f
9:50 8ft 17s 8s 4 7 mph 1022.7mb 56f 58f
8:50 8ft 17s 8s 4 7 mph 1022.2mb 56f 58f
7:50 7.5ft 13s 7s 2 4 mph 1021.5mb 56f 57f
6:50 7ft 11s 7s 2
mph
1020.8mb 56f 57f
5:50 7ft 13s 7s 4 7 mph 1020.1mb 56f 56f
4:50 7.5ft 14s 7s 7 9 mph 1019.7mb 56f 56f
3:50 7ft 12s 7s 11 13 mph 1019.2mb 56f 56f
2:50 7ft 11s 6s 11 13 mph 1019.3mb 56f 56f
1:50 8ft 11s 7s 13 18 mph 1019.3mb 56f 56f
12:50 7ft 12s 7s 16 20 mph 1019mb 56f 55f
dom 02/19 11:50 7ft 12s 7s 16 20 mph 1019.3mb 56f 54f
10:50 7ft 11s 7s 18 20 mph 1019.1mb 56f 54f
9:50 7ft 11s 7s 18 22 mph 1018.6mb 56f 54f
8:50 7ft 11s 8s 16 18 mph 1018.8mb 56f 54f
7:50 7.5ft 12s 9s 16 20 mph 1017.7mb 56f 54f
6:50 8ft 13s 9s 13 18 mph 1017mb 56f 53f
5:50 8ft 12s 9s 9 11 mph 1016.6mb 56f 54f
4:50 8ft 12s 9s 7 9 mph 1016mb 56f 56f
2:50 8ft 12s 8s 9 11 mph 1015.3mb 56f 56f